Weather Roundup
Issued by NWS Chicago, IL

Home | Current Version | Previous Version | Graphics & Text | Print | Product List | Glossary On
Versions: 1 2 3 4 5 6 7 8 9 10 11 12 13 14 15 16 17 18 19 20 21 22 23 24 25 26 27 28 29 30 31 32 33 34 35 36 37 38 39 40 41 42 43 44 45 46 47 48 49 50
000
NZUS59 KLOT 261706
HRRLOT

CHICAGO AREA WEATHER ROUNDUP
NATIONAL WEATHER SERVICE CHICAGO/ROMEOVILLE IL
1100 AM CST MON JAN 26 2015

NOTE: "FAIR" INDICATES FEW OR NO CLOUDS BELOW 12,000 FEET WITH NO
SIGNIFICANT WEATHER AND/OR OBSTRUCTIONS TO VISIBILITY.

* THESE STATIONS ARE NOT UNDER NWS QUALITY CONTROL. THEY ALSO MAY NOT
  REPORT WEATHER SUCH AS PRECIPITATION OR FOG.

ILZ005-006-012>014-019>023-261800-
NORTHEAST ILLINOIS

CITY           SKY/WX    TMP DP  RH WIND       PRES   REMARKS
OHARE          CLOUDY    24  16  71 SW7       29.92F WCI  16
MIDWAY         CLOUDY    26  18  71 S5        29.93F WCI  20
AURORA         CLOUDY    24  17  74 S6        29.93F WCI  17
LANSING*       CLOUDY    23  16  74 S5        29.95F WCI  17
JOLIET*        CLOUDY    24  18  76 SW3       29.95F
WAUKEGAN       PTSUNNY   25  17  72 S7        29.91F WCI  17
DUPAGE AIRPORT CLOUDY    24  17  74 S8        29.91F WCI  15
WHEELING       PTSUNNY   25  16  68 VRB3      29.94F
KANKAKEE*      PTSUNNY   26  22  82 SW3       29.96F
MORRIS*        CLOUDY    24  20  87 SW5       29.94F WCI  18
LEWIS AIRPORT* CLOUDY    25  18  76 SW6       29.94F WCI  18
NORTHERLY IS     N/A     25  16  68 S3          N/A
$$

WIZ051-052-058>065-066-070>072-261800-
SOUTHEAST WISCONSIN

CITY           SKY/WX    TMP DP  RH WIND       PRES   REMARKS
MILWAUKEE      PTSUNNY   26  15  63 S8        29.90F WCI  18
KENOSHA*       PTSUNNY   26  17  68 S8        29.91F WCI  18
RACINE*        CLOUDY    26  15  63 S7        29.93F WCI  18
BURLINGTON     PTSUNNY   24  17  75 S9        29.90F WCI  14
WAUKESHA       MOSUNNY   18  14  86 S7        29.90F WCI   8
WEST BEND      CLOUDY    25  16  68 S7        29.88F WCI  17
$$

INZ001>003-010>013-019-020-261800-
NORTHWEST INDIANA

CITY           SKY/WX    TMP DP  RH WIND       PRES   REMARKS
GARY*          CLOUDY    25  12  58 S5        29.96F WCI  19
MICHIGAN CITY* NOT AVBL
RENSSELAER*    NOT AVBL
VALPARAISO     SUNNY     19  12  74 SW7       29.95F WCI  10
$$

LMZ740>746-261800-
SOUTHERN LAKE MICHIGAN

STATION/POSITION TIME  SKY/WX   TEMP WIND        PRES    VSBY
                                AIR  DIR/SP/G
                 (UTC)          (F)  (DEG/KT/KT) (MB)    (MI)
HARRISON CRIB    1700            23  170/  8/ 10   N/A
BURNHAM HARBOR   1700            25  160/  3/  7   N/A
CALUMET HARBOR   1700            23  170/  5/  6   N/A
BURNS HARBOR     NOT AVBL
MICHIGAN CITY    1700            20  230/  2/  3   N/A
$$

ABBREVIATIONS USED IN REMARKS
   TC - TEMPERATURE IN CELSIUS
  WCI - WIND CHILL INDEX
   HX - HEAT INDEX
  VSB - VISIBILITY
$$



USA.gov is the U.S. government's official web portal to all federal, state and local government web resources and services.